Showing default

POSAT 1, 22829

Orbit data source: Space-Track

POSAT 1, 22829 is a payload satellite owned by INETI (PT) in SSO that was launched on Sun, 26 Sep 1993 UTC via an ARIANE 40 launch vehicle from the French Guiana (FRGUI). Payload-class satellites include a variety of spacecraft equipped with specific instruments for various scientific and technological missions. These include communications satellites like Starlink; space stations such as the ISS; scientific satellites like the Hubble; Earth observation satellites from companies like Planet Labs, Umbra, and HawkEye 360; GPS; miniature CubeSats for education and research; and military/defense satellites.

Loading next visibility...
Identifier
22829, 1993-061G
Orbit
SSO
Last TLE update
15 hours ago
Origin
Manufacturer
SSTL
Mission
Non-operational Amateur Communications
Bus & Motor
UOSAT, Unknown motor
Mass
50 kg wet, 50 kg dry
Launch date (UTC)
1993-09-26 (32 years ago)
Launch vehicle
ARIANE 40
Launch site
French Guiana (FRGUI)
Object type
Payload
Rocket body
Debris
Shape & HBR
Box + 1 Ant, 6.5 m
Radar Cross Section
0.597 m², Medium (>0.1 m² and < 1m²)

Expand to show TLE details & history

TLE from 15 hours ago
0 POSAT 1
1 22829U 93061G   25181.72578099  .00000056  00000-0  37736-4 0  9997
2 22829  98.7134 243.3838 0009361 349.5332  10.5655 14.31780891657750
Epoch: 2025-06-30T17:25Z
TLE epoch observation values (Epoch: 2025-06-30T17:25:07.477Z)
Latitude
Longitude
63.07119°
Altitude
782.121 km
Speed
7.466 km/s
True Right ascension
16h 13m 32s
True Declination
0° 00' 00"
Sunlit
Object was in full shadow at epoch
Visualization orbit readout
Latitude
62.36874°
Longitude
46.78397°
Altitude
794.812 km
Speed
7.463 km/s
Apparent Right ascension
10h 56m 08s
Apparent Declination
22° 42' 11"
Sunlit
Object is in daylight
Visualization observer readout
Local Sidereal Time
20:26:42
Azimuth
323.859° NNW
Elevation
-18.345°
Doppler factor
1
Orbital elements
Apogee altitude
789.631 km
Perigee altitude
776.224 km
Semi-major axis
7,161.064 km
Eccentricity
0.00094
Inclination
98.7134°
RAAN
243.3838°
Arg. of periapsis
349.5332°
True anomaly
Unknown
Mean anomaly
10.5655°
Eccentric anomaly
Unknown
Mean motion
3.5816 °/min
Orbital period
100.51 mins
BSTAR
0.000037736
Loading maneuver chart data...
Loading SW <> Apogee altitude chart data...
Loading historical data...
Loading historical data...
Loading historical data...
Loading historical data...
Loading historical data...
Loading historical data...
Loading historical data...

POSAT 1 Visibility forecast

Observer location: undefined°, undefined°

Span
Click to sort rows by Start time (UTC) header in descending order
Start Az.
Max El. time (UTC)
Max El. Az.
Max El.
End time (UTC)
End Az.
6 mins2025-07-01 15:49:31.305Z51.151° ENE2025-07-01 15:52:31.305Z87.282° E17.099°2025-07-01 15:55:31.305Z127.145° SE
8 mins2025-07-01 17:29:31.305Z354.921° N2025-07-01 17:32:31.305Z289.305° WNW38.453°2025-07-01 17:37:31.305Z213.241° SW
6 mins2025-07-02 03:07:31.305Z106.552° ESE2025-07-02 03:10:31.305Z56.823° ENE23.461°2025-07-02 03:13:31.305Z16.328° NNE
7 mins2025-07-02 04:46:31.305Z209.659° SW2025-07-02 04:49:31.305Z270.048° WNW30.698°2025-07-02 04:53:31.305Z326.874° NNW
|